This is the latest recevied weather packets stored in our database for station/object N3EDS. If no packets are shown the sender has not sent any weather packets the latest 10 day(s).
| Time | Temp. | Humidity | Pressure | Rain* | Wind** | Luminosity | Snow |
|---|---|---|---|---|---|---|---|
| 1777913198 | 19.44° C | 47% | 1012 hPa | 0 mm | - | 1027 W/m² | - |
| 1777912893 | 18.89° C | 48% | 1012 hPa | 0 mm | - | 287 W/m² | - |
| 1777912590 | 18.33° C | 47% | 1012 hPa | 0 mm | - | 959 W/m² | - |
| 1777912287 | 18.89° C | 47% | 1012.3 hPa | 0 mm | - | 879 W/m² | - |
| 1777911982 | 17.78° C | 49% | 1012.4 hPa | 0 mm | - | 968 W/m² | - |
| 1777911679 | 17.22° C | 49% | 1012.4 hPa | 0 mm | - | 266 W/m² | - |
| 1777911375 | 18.33° C | 47% | 1012.4 hPa | 0 mm | - | 239 W/m² | - |
| 1777911073 | 18.33° C | 47% | 1012.4 hPa | 0 mm | - | 257 W/m² | - |
| 1777910770 | 18.33° C | 48% | 1012.5 hPa | 0 mm | - | 926 W/m² | - |
| 1777910467 | 17.78° C | 47% | 1012.5 hPa | 0 mm | - | 893 W/m² | - |
| 1777910163 | 18.33° C | 48% | 1012.6 hPa | 0 mm | - | 843 W/m² | - |
| 1777909861 | 18.33° C | 47% | 1012.5 hPa | 0 mm | - | 799 W/m² | - |
| 1777909557 | 17.78° C | 48% | 1012.4 hPa | 0 mm | - | 825 W/m² | - |
| 1777909254 | 17.78° C | 46% | 1012.8 hPa | 0 mm | - | 848 W/m² | - |
| 1777908953 | 18.33° C | 45% | 1012.8 hPa | 0 mm | - | 398 W/m² | - |
| 1777908651 | 17.78° C | 46% | 1012.7 hPa | 0 mm | - | 249 W/m² | - |
| 1777908341 | 17.78° C | 45% | 1012.5 hPa | 0 mm | - | 939 W/m² | - |
| 1777908038 | 17.78° C | 46% | 1012.7 hPa | 0 mm | - | 732 W/m² | - |
| 1777907733 | 17.78° C | 46% | 1012.5 hPa | 0 mm | - | 357 W/m² | - |
| 1777907428 | 16.67° C | 47% | 1012.8 hPa | 0 mm | - | 348 W/m² | - |
| 1777907125 | 17.22° C | 47% | 1013 hPa | 0 mm | - | 136 W/m² | - |
| 1777906823 | 17.22° C | 50% | 1012.7 hPa | 0 mm | - | 176 W/m² | - |
| 1777906520 | 16.67° C | 51% | 1012.9 hPa | 0 mm | - | 802 W/m² | - |
| 1777906215 | 16.67° C | 50% | 1012.8 hPa | 0 mm | - | 790 W/m² | - |
| 1777905912 | 16.67° C | 48% | 1012.8 hPa | 0 mm | - | 510 W/m² | - |
* Rain latest hour (hover to see other rain measurements)
** Current wind speed in m/s (hover to see current wind gust speed)